Weather History for Key West, FL

Change the Weather History Date:

Thursday, April 25, 2013

  Actual Average Record
Temperature  
Mean Temperature 81 °F 78 °F  
Max Temperature 85 °F 82 °F 90 °F (1991)
Min Temperature 76 °F 73 °F 64 °F (2012)
Degree Days  
Heating Degree Days 0 0  
Month to date heating degree days 0 0  
Since 1 July heating degree days 28 73  
Cooling Degree Days 16 13  
Month to date cooling degree days 376 278  
Year to date cooling degree days 1072 888  
Growing Degree Days 30 (Base 50)    
Moisture  
Dew Point 63 °F    
Average Humidity 54    
Maximum Humidity 64    
Minimum Humidity 43    
Precipitation  
Precipitation 0.00 in 0.07 in 2.21 in (1948)
Month to date precipitation 1.97 1.78  
Year to date precipitation 5.71 7.36  
Snow  
Snow 0.00 in - - ()
Month to date snowfall 0.0  
Since 1 July snowfall 0.0  
Snow Depth 0.00 in    
Sea Level Pressure  
Sea Level Pressure 30.14 in    
Wind  
Wind Speed 10 mph (ENE)    
Max Wind Speed 16 mph    
Max Gust Speed 22 mph    
Visibility 10 miles    
Events      
T = Trace of Precipitation, MM = Missing Value Source: NWS Daily Summary

Daily Weather History Graph

Daily Weather History Graph

Search for Another Location

Airport:

Trip Planner

Search our weather history database for the weather conditions in past years. The results will help you decide how hot, cold, wet, or windy it might be!

Date:

Astronomy

Apr. 25, 2013 Rise Set
Actual Time 6:56 AM EDT 7:53 PM EDT
Civil Twilight 6:32 AM EDT 8:17 PM EDT
Nautical Twilight 6:04 AM EDT 8:45 PM EDT
Astronomical Twilight 5:36 AM EDT 9:14 PM EDT
Moon 8:02 PM EDT (4/25) 6:37 AM EDT (4/25)
Length of Visible Light 13h 44m
Length of Day
12h 57m
Full, 100% of the Moon is Illuminated
Apr 25
Full
Apr 25
Full
May 2
Last Quarter
May 9
New
May 18
First Quarter

Hourly Weather History & Observations

Time (EDT) Temp. Heat Index Dew Point Humidity Pressure Visibility Wind Dir Wind Speed Gust Speed Precip Events Conditions
12:53 AM 77.0 °F - 64.9 °F 66% 30.11 in 10.0 mi East 12.7 mph - N/A   Clear
1:53 AM 77.0 °F - 64.9 °F 66% 30.10 in 10.0 mi East 10.4 mph - N/A   Clear
2:53 AM 77.0 °F - 64.0 °F 64% 30.09 in 10.0 mi East 9.2 mph - N/A   Clear
3:53 AM 77.0 °F - 64.0 °F 64% 30.09 in 10.0 mi East 11.5 mph - N/A   Clear
4:53 AM 77.0 °F - 64.0 °F 64% 30.08 in 10.0 mi East 11.5 mph - N/A   Clear
5:53 AM 77.0 °F - 64.0 °F 64% 30.09 in 10.0 mi East 11.5 mph 21.9 mph N/A   Clear
6:53 AM 75.9 °F - 63.0 °F 64% 30.11 in 10.0 mi ENE 6.9 mph - N/A   Clear
7:53 AM 77.0 °F - 64.0 °F 64% 30.13 in 10.0 mi ENE 4.6 mph - N/A   Clear
8:53 AM 79.0 °F - 62.1 °F 56% 30.14 in 10.0 mi East 8.1 mph - N/A   Clear
9:53 AM 81.0 °F 82.2 °F 63.0 °F 54% 30.16 in 10.0 mi East 11.5 mph - N/A   Clear
10:53 AM 82.0 °F 83.4 °F 64.0 °F 54% 30.17 in 10.0 mi East 9.2 mph - N/A   Partly Cloudy
11:53 AM 82.9 °F 84.4 °F 64.0 °F 53% 30.17 in 10.0 mi East 13.8 mph - N/A   Mostly Cloudy
12:53 PM 84.9 °F 85.0 °F 61.0 °F 44% 30.16 in 10.0 mi NNE 11.5 mph - N/A   Partly Cloudy
1:53 PM 84.9 °F 84.4 °F 59.0 °F 41% 30.17 in 10.0 mi NNE 11.5 mph 18.4 mph N/A   Clear
2:53 PM 84.0 °F 84.4 °F 61.0 °F 46% 30.16 in 10.0 mi NNE 13.8 mph 18.4 mph N/A   Clear
3:53 PM 82.9 °F 83.3 °F 61.0 °F 47% 30.13 in 10.0 mi NNE 10.4 mph - N/A   Clear
4:53 PM 82.9 °F 84.0 °F 63.0 °F 51% 30.12 in 10.0 mi NE 9.2 mph - N/A   Clear
5:53 PM 82.9 °F 84.4 °F 64.0 °F 53% 30.12 in 10.0 mi NNE 11.5 mph - N/A   Clear
6:53 PM 82.0 °F 83.1 °F 63.0 °F 52% 30.12 in 10.0 mi Variable 5.8 mph - N/A   Clear
7:53 PM 79.0 °F - 64.0 °F 60% 30.14 in 10.0 mi NNE 6.9 mph - N/A   Clear
8:53 PM 79.0 °F - 62.1 °F 56% 30.16 in 10.0 mi ENE 5.8 mph - N/A   Mostly Cloudy
9:53 PM 78.1 °F - 63.0 °F 60% 30.18 in 10.0 mi East 8.1 mph - N/A   Partly Cloudy
10:53 PM 77.0 °F - 63.0 °F 62% 30.19 in 10.0 mi East 9.2 mph - N/A   Scattered Clouds
11:53 PM 77.0 °F - 63.0 °F 62% 30.19 in 10.0 mi East 8.1 mph - N/A   Clear